Change the Weather History Date:

Saturday, November 26, 2011

  Actual Average Record
Temperature  
Mean Temperature 52 °F -  
Max Temperature 66 °F 53 °F 69 °F (1990)
Min Temperature 37 °F 35 °F 12 °F (1950)
Degree Days  
Heating Degree Days 14    
Growing Degree Days 2 (Base 50)    
Moisture  
Dew Point 43 °F    
Average Humidity 70    
Maximum Humidity 100    
Minimum Humidity 48    
Precipitation  
Precipitation 0.00 in - - ()
Sea Level Pressure  
Sea Level Pressure 30.09 in    
Wind  
Wind Speed 5 mph (South)    
Max Wind Speed 21 mph    
Max Gust Speed 29 mph    
Visibility 9 miles    
Events Rain    
Averages and records for this station are not official NWS values.
T = Trace of Precipitation, MM = Missing Value Source: NWS Daily Summary

Daily Weather History Graph

Daily Weather History Graph

Search for Another Location

Airport or City:

Trip Planner

Search our weather history database for the weather conditions in past years. The results will help you decide how hot, cold, wet, or windy it might be!

Date:

Astronomy

Nov. 26, 2011 Rise Set
Actual Time 7:32 AM EST 5:17 PM EST
Civil Twilight 7:03 AM EST 5:46 PM EST
Nautical Twilight 6:30 AM EST 6:19 PM EST
Astronomical Twilight 5:58 AM EST 6:51 PM EST
Moon 9:02 AM EST (11/26) 6:47 PM EST (11/26)
Length of Visible Light 10h 43m
Length of Day
9h 44m
Waxing Crescent, 3% of the Moon is Illuminated
Nov 26
Waxing Crescent
Dec 2
First Quarter
Dec 10
Full
Dec 17
Last Quarter
Dec 24
New

Hourly Weather History & Observations

Time (EST) Temp. Windchill Dew Point Humidity Pressure Visibility Wind Dir Wind Speed Gust Speed Precip Events Conditions
12:53 AM 39.2 °F - 37.4 °F 93% 30.15 in 10.0 mi Calm Calm - N/A   Clear
1:53 AM 39.0 °F - 37.0 °F 93% 30.16 in 9.0 mi Calm Calm - N/A   Clear
2:53 AM 37.9 °F - 37.0 °F 97% 30.16 in 8.0 mi Calm Calm - N/A   Clear
3:53 AM 37.9 °F - 37.0 °F 97% 30.16 in 2.5 mi Calm Calm - N/A   Clear
4:00 AM 37.4 °F - 37.4 °F 100% 30.16 in 1.0 mi Calm Calm - N/A   Clear
4:10 AM 37.4 °F - 37.4 °F 100% 30.15 in 3.0 mi Calm Calm - N/A   Clear
4:53 AM 39.0 °F - 37.0 °F 93% 30.16 in 10.0 mi Calm Calm - N/A   Clear
5:53 AM 42.1 °F - 39.9 °F 92% 30.17 in 10.0 mi Calm Calm - N/A   Clear
6:53 AM 43.0 °F 41.3 °F 39.0 °F 86% 30.17 in 10.0 mi West 3.5 mph - N/A   Mostly Cloudy
7:53 AM 45.0 °F 43.5 °F 37.0 °F 74% 30.18 in 10.0 mi SW 3.5 mph - N/A   Clear
8:53 AM 50.0 °F - 39.2 °F 66% 30.17 in 10.0 mi South 5.8 mph - N/A   Scattered Clouds
9:53 AM 53.6 °F - 41.0 °F 62% 30.17 in 10.0 mi South 8.1 mph - N/A   Partly Cloudy
10:53 AM 57.9 °F - 44.1 °F 60% 30.17 in 10.0 mi South 9.2 mph - N/A   Clear
11:20 AM 60.8 °F - 44.6 °F 55% 30.15 in 10.0 mi South 10.4 mph - N/A   Mostly Cloudy
11:53 AM 62.1 °F - 46.9 °F 58% 30.13 in 10.0 mi South 9.2 mph - N/A   Overcast
12:53 PM 66.9 °F - 46.9 °F 49% 30.08 in 10.0 mi SSW 20.7 mph 28.8 mph N/A   Scattered Clouds
1:53 PM 66.0 °F - 46.9 °F 50% 30.06 in 10.0 mi SSW 13.8 mph 26.5 mph N/A   Clear
2:53 PM 66.0 °F - 46.9 °F 50% 30.04 in 10.0 mi South 16.1 mph - N/A   Clear
3:53 PM 66.0 °F - 46.0 °F 48% 30.03 in 10.0 mi South 13.8 mph 26.5 mph N/A   Clear
4:53 PM 64.0 °F - 46.9 °F 54% 30.02 in 10.0 mi SSE 9.2 mph - N/A   Clear
5:53 PM 64.0 °F - 46.9 °F 54% 30.01 in 10.0 mi SSE 8.1 mph - N/A   Clear
6:53 PM 62.6 °F - 46.4 °F 55% 29.99 in 10.0 mi South 11.5 mph - N/A   Clear
7:53 PM 61.0 °F - 46.0 °F 58% 29.99 in 10.0 mi South 13.8 mph 18.4 mph N/A   Clear
8:53 PM 61.0 °F - 46.9 °F 60% 29.98 in 10.0 mi South 9.2 mph - N/A   Clear
9:53 PM 61.0 °F - 46.9 °F 60% 29.96 in 10.0 mi South 11.5 mph 19.6 mph N/A   Clear
10:53 PM 60.8 °F - 48.2 °F 63% 29.96 in 10.0 mi South 6.9 mph - N/A Rain Light Rain
11:53 PM 59.0 °F - 48.9 °F 69% 29.95 in 10.0 mi South 6.9 mph - 0.00 in   Mostly Cloudy